Weather History for KCMA - May, 2014

Change the Weather History Date:

Saturday, May 31, 2014

  Actual Average Record
Temperature  
Mean Temperature 64 °F 63 °F  
Max Temperature 75 °F 71 °F 80 °F (2004)
Min Temperature 52 °F 54 °F 44 °F (1949)
Degree Days  
Heating Degree Days 1 3  
Month to date heating degree days 54 124  
Since 1 July heating degree days 1303 1943  
Cooling Degree Days 0 0  
Month to date cooling degree days 86 11  
Year to date cooling degree days 148 31  
Growing Degree Days 14 (Base 50)    
Moisture  
Dew Point 53 °F    
Average Humidity 68    
Maximum Humidity 89    
Minimum Humidity 46    
Precipitation  
Precipitation 0.00 in 0.00 in 0.01 in (1969)
Month to date precipitation 0.01 0.31  
Year to date precipitation 4.19 10.93  
Since 1 July precipitation 5.01 15.17  
Sea Level Pressure  
Sea Level Pressure 29.91 in    
Wind  
Wind Speed 5 mph (WSW)    
Max Wind Speed 13 mph    
Max Gust Speed -    
Visibility 8 miles    
Events      
T = Trace of Precipitation, MM = Missing Value Source: NWS Daily Summary

Daily Weather History Graph

Daily Weather History Graph

Search for Another Location

Airport or City:

Trip Planner

Search our weather history database for the weather conditions in past years. The results will help you decide how hot, cold, wet, or windy it might be!

Date:

Astronomy

May. 31, 2014 Rise Set
Actual Time 5:45 AM PDT 8:02 PM PDT
Civil Twilight 5:17 AM PDT 8:31 PM PDT
Nautical Twilight 4:41 AM PDT 9:06 PM PDT
Astronomical Twilight 4:03 AM PDT 9:45 PM PDT
Moon 8:24 AM PDT (5/31) 10:28 PM PDT (5/31)
Length of Visible Light 15h 14m
Length of Day
14h 16m
Waxing Crescent, 9% of the Moon is Illuminated
May 31
Waxing Crescent
Jun 5
First Quarter
Jun 12
Full
Jun 19
Last Quarter
Jun 27
New

Hourly Weather History & Observations

Time (PDT) Temp. Dew Point Humidity Pressure Visibility Wind Dir Wind Speed Gust Speed Precip Events Conditions
12:55 AM 57.9 °F 52.0 °F 81% 29.90 in 7.0 mi Calm Calm - N/A   Clear
1:55 AM 57.9 °F 53.1 °F 84% 29.90 in 7.0 mi Calm Calm - N/A   Clear
2:55 AM 59.0 °F 54.0 °F 83% 29.89 in 7.0 mi ESE 9.2 mph - N/A   Clear
3:55 AM 55.9 °F 51.1 °F 84% 29.89 in 7.0 mi NE 3.5 mph - N/A   Clear
4:55 AM 55.0 °F 51.1 °F 86% 29.89 in 7.0 mi East 3.5 mph - N/A   Clear
5:55 AM 54.0 °F 50.0 °F 86% 29.90 in 6.0 mi Calm Calm - N/A   Clear
6:55 AM 55.0 °F 50.0 °F 83% 29.91 in 6.0 mi Calm Calm - N/A   Haze
8:55 AM 64.9 °F 55.0 °F 70% 29.94 in 7.0 mi WSW 3.5 mph - N/A   Clear
9:55 AM 70.0 °F 55.0 °F 59% 29.93 in 8.0 mi West 4.6 mph - N/A   Clear
10:55 AM 73.0 °F 55.0 °F 53% 29.93 in 9.0 mi Variable 4.6 mph - N/A   Clear
11:55 AM 73.0 °F 55.9 °F 55% 29.93 in 9.0 mi West 9.2 mph - N/A   Clear
12:55 PM 73.0 °F 55.0 °F 53% 29.93 in 10.0 mi WSW 9.2 mph - N/A   Clear
1:55 PM 73.9 °F 55.0 °F 52% 29.93 in 10.0 mi WSW 10.4 mph - N/A   Clear
2:55 PM 73.0 °F 53.1 °F 49% 29.92 in 10.0 mi WSW 10.4 mph - N/A   Clear
3:55 PM 73.0 °F 52.0 °F 48% 29.91 in 10.0 mi West 10.4 mph - N/A   Clear
4:55 PM 72.0 °F 51.1 °F 48% 29.90 in 10.0 mi West 9.2 mph - N/A   Clear
5:55 PM 70.0 °F 51.1 °F 51% 29.89 in 10.0 mi WSW 9.2 mph - N/A   Clear
6:55 PM 68.0 °F 52.0 °F 56% 29.88 in 10.0 mi SW 4.6 mph - N/A   Clear
7:55 PM 63.0 °F 53.1 °F 70% 29.89 in 9.0 mi WSW 5.8 mph - N/A   Clear
8:55 PM 61.0 °F 54.0 °F 78% 29.90 in 9.0 mi West 3.5 mph - N/A   Clear
9:55 PM 60.1 °F 54.0 °F 80% 29.91 in 8.0 mi Calm Calm - N/A   Clear
10:55 PM 60.1 °F 53.1 °F 78% 29.91 in 8.0 mi Calm Calm - N/A   Clear
11:55 PM 59.0 °F 53.1 °F 81% 29.91 in 8.0 mi Calm Calm - N/A   Clear